Regional Weather Roundup
Issued by NWS Newport/Morehead, NC

Current Version | Previous Version | Text Only | Print | Product List | Glossary Off
Versions: 1 2 3 4 5 6 7 8 9 10 11 12 13 14 15 16 17 18 19 20 21 22 23 24 25 26 27 28 29 30 31 32 33 34 35 36 37 38 39 40 41 42 43 44 45 46 47 48 49 50

000
ASUS42 KMHX 301525
RWRMHX
WEATHER ROUNDUP FOR EASTERN NORTH CAROLINA
NATIONAL WEATHER SERVICE NEWPORT/MOREHEAD CITY NC
1100 AM EDT SUN AUG 30 2015

NOTE: "FAIR" INDICATES FEW OR NO CLOUDS BELOW 12,000 FEET
WITH NO SIGNIFICANT WEATHER AND/OR OBSTRUCTIONS TO VISIBILITY

NCZ015>017-031-032-045>047-102-103-301600-
NORTH COAST

CITY           SKY/WX    TMP DP  RH WIND       PRES   REMARKS
EDENTON        SUNNY     80  66  62 CALM      30.18S
ELIZABETH CITY SUNNY     81  68  64 N6        30.18R
KITTY HAWK     MOSUNNY   84  70  63 NE7       30.16R
MANTEO         PTSUNNY   80  71  74 NE8       30.17R

$$

NCZ045>047-081-094-103-104-301600-
CENTRAL COAST

CITY           SKY/WX    TMP DP  RH WIND       PRES   REMARKS
FRISCO         MOSUNNY   81  74  79 VRB5      30.16R
SWANQUARTER    NOT AVBL

$$

NCZ095-097-098-100-101-301600-
SOUTHERN COAST

CITY           SKY/WX    TMP DP  RH WIND       PRES   REMARKS
BEAUFORT       CLOUDY    78  68  71 N7        30.18R
CEDAR ISLAND   NOT AVBL
JACKSONVILLE   CLOUDY    78  64  61 N5        30.18R
PINEY ISLAND   PTSUNNY  N/A N/A N/A NW8       30.17R
WILMINGTON     CLOUDY    75  68  78 NE5       30.18R


$$

NCZ011>013-027>030-043-044-078>080-089-090>093-098-301600-
COASTAL PLAIN

CITY           SKY/WX    TMP DP  RH WIND       PRES   REMARKS
AHOSKIE        SUNNY     81  61  50 CALM      30.18S
CLINTON        CLOUDY    79  66  65 CALM      30.19S
ELIZABETHTOWN  CLOUDY    77  66  69 CALM      30.18F
GOLDSBORO      PTSUNNY   80  65  58 SE3       30.17R
GREENVILLE     SUNNY     81  63  54 CALM      30.19S
HAVELOCK       CLOUDY    79  66  64 N5        30.19R
KENANSVILLE      N/A     76  65  67 CALM      30.19F
KINSTON        MOSUNNY   79  66  65 CALM      30.20R
NEW BERN       PTSUNNY   78  64  61 N5        30.19R
RICHLANDS      CLOUDY    77  64  65 CALM      30.19R
ROCKY MOUNT    MOSUNNY   84  60  44 VRB3      30.19R
WASHINGTON     SUNNY     80  65  60 CALM      30.18S
WHITEVILLE     CLOUDY    77  70  79 E7        30.18R

$$

AMZ130-135-150-152-154-156-158-170-250-252-270-ANZ085-086-088-633-658-670-301600-
MARINE OBSERVATIONS

STATION/POSITION TIME  TEMP    WIND        PRES    WAVE   SWELL
                       AIR SEA DIR/SP/G            HT/PER HT/PER
                 (UTC) (F)     (DEG/KT/KT) (MB)    (FT/S) (FT/S)
CHESAPEAKE LIGHT 1500   76      10/  5/  6 1022.1
64 E VA BEACH    1450   78 77   30/ 12/ 14 1020.6    4/11   3/11
DUCK             NOT AVBL
2 E DUCK         1511      78                N/A     3/11   2/11
OREGON INLET     NOT AVBL
13E OREGON INLT  1500      78                N/A     4/10   2/11
HATTERAS CG      NOT AVBL
DIAMOND BUOY     1450   78 84  360/ 10/ 12 1021.2    4/10   3/10
CAPE LOOKOUT     1500   78     360/  2/  3 1021.6
BEAUFORT LAB     NOT AVBL
30 SE NEW RVR IN 1408   78 81   20/  6/ 10 1021.8
30 SE NEW RVR IN 1425      81                N/A     3/11   2/11
27 SE WRIGHTSVLE 1500   75 81   60/  8/ 10   N/A
5 SE WRIGHTSVLE  1408   78 82   60/  6/  8 1021.8
225 S CAPE HAT   1450   84 84  160/  4/  6 1021.6    4/ 9   3/ 9
41 SE CHARLESTON 1450   80 85   60/ 10/ 12 1019.7    4/10   5/10

$$



USA.gov is the U.S. government's official web portal to all federal, state and local government web resources and services.